owner,sensor,date,latitude,longitude,vertical_datum,wind_speed,wind_to_direction,wind_speed_of_gust,qcFlag 
COMPS,ioos:station:USF.COMPS:C12:1,2019-09-01T00:35:00,27.4980,-83.7220,3.0,7.11,71.11,8.63,'11111222,11111222,11111222' 
COMPS,ioos:station:USF.COMPS:C12:1,2019-09-01T01:35:00,27.4980,-83.7220,3.0,7.45,63.08,8.94,'11111222,11111222,11111222' 
COMPS,ioos:station:USF.COMPS:C12:1,2019-09-01T02:35:00,27.4980,-83.7220,3.0,9.17,74.64,10.83,'11111222,11111222,11111222' 
COMPS,ioos:station:USF.COMPS:C12:1,2019-09-01T03:35:00,27.4980,-83.7220,3.0,9.88,78.77,12.41,'11111222,11111222,11111222' 
COMPS,ioos:station:USF.COMPS:C12:1,2019-09-01T04:35:00,27.4980,-83.7220,3.0,10.29,88.08,12.33,'11111222,11111222,11111222' 
COMPS,ioos:station:USF.COMPS:C12:1,2019-09-01T05:35:00,27.4980,-83.7220,3.0,10.18,88.75,12.37,'11111222,11111222,11111222' 
COMPS,ioos:station:USF.COMPS:C12:1,2019-09-01T06:35:00,27.4980,-83.7220,3.0,9.04,93.05,11.04,'11111222,11111222,11111222' 
COMPS,ioos:station:USF.COMPS:C12:1,2019-09-01T07:35:00,27.4980,-83.7220,3.0,8.8,94.87,10.69,'11111222,11111222,11111222' 
COMPS,ioos:station:USF.COMPS:C12:1,2019-09-01T08:35:00,27.4980,-83.7220,3.0,8.01,94.81,10.13,'11111222,11111222,11111222' 
COMPS,ioos:station:USF.COMPS:C12:1,2019-09-01T09:35:00,27.4980,-83.7220,3.0,8.18,91.15,9.6,'11111222,11111222,11111222' 
COMPS,ioos:station:USF.COMPS:C12:1,2019-09-01T10:35:00,27.4980,-83.7220,3.0,8.01,97.48,9.61,'11111222,11111222,11111222' 
COMPS,ioos:station:USF.COMPS:C12:1,2019-09-01T11:35:00,27.4980,-83.7220,3.0,7.03,89.58,8.82,'11111222,11111222,11111222' 
COMPS,ioos:station:USF.COMPS:C12:1,2019-09-01T12:35:00,27.4980,-83.7220,3.0,7.65,85.07,9.13,'11111222,11111222,11111222' 
COMPS,ioos:station:USF.COMPS:C12:1,2019-09-01T13:35:00,27.4980,-83.7220,3.0,7.52,85.81,9.2,'11111222,11111222,11111222' 
COMPS,ioos:station:USF.COMPS:C12:1,2019-09-01T14:35:00,27.4980,-83.7220,3.0,7.17,86.94,8.83,'11111222,11111222,11111222' 
COMPS,ioos:station:USF.COMPS:C12:1,2019-09-01T15:35:00,27.4980,-83.7220,3.0,6.36,82.15,7.9,'11111222,11111222,11111222' 
COMPS,ioos:station:USF.COMPS:C12:1,2019-09-01T16:35:00,27.4980,-83.7220,3.0,5.13,72.25,6.74,'11111222,11111222,11111222' 
COMPS,ioos:station:USF.COMPS:C12:1,2019-09-01T17:35:00,27.4980,-83.7220,3.0,5.05,66.1,6.22,'11111222,11111222,11111222' 
COMPS,ioos:station:USF.COMPS:C12:1,2019-09-01T18:35:00,27.4980,-83.7220,3.0,4.27,66.43,6.28,'11111222,11111222,11111222' 
COMPS,ioos:station:USF.COMPS:C12:1,2019-09-01T19:35:00,27.4980,-83.7220,3.0,3.64,39.02,4.76,'11111222,11111222,11111222' 
COMPS,ioos:station:USF.COMPS:C12:1,2019-09-01T20:35:00,27.4980,-83.7220,3.0,5.25,18.8,7.21,'11111222,11111222,11111222' 
COMPS,ioos:station:USF.COMPS:C12:1,2019-09-01T21:35:00,27.4980,-83.7220,3.0,7.13,18.6,8.69,'11111222,11111222,11111222' 
COMPS,ioos:station:USF.COMPS:C12:1,2019-09-01T22:35:00,27.4980,-83.7220,3.0,7.67,26.97,10.04,'11111222,11111222,11111222' 
COMPS,ioos:station:USF.COMPS:C12:1,2019-09-01T23:35:00,27.4980,-83.7220,3.0,7.29,47.53,8.98,'11111222,11111222,11111222' 
COMPS,ioos:station:USF.COMPS:C12:1,2019-09-02T01:35:00,27.4980,-83.7220,3.0,6.48,62.84,7.51,'11111222,11111222,11111222' 
COMPS,ioos:station:USF.COMPS:C12:1,2019-09-02T02:35:00,27.4980,-83.7220,3.0,7.7,57.87,9.4,'11111222,11111222,11111222' 
COMPS,ioos:station:USF.COMPS:C12:1,2019-09-02T03:35:00,27.4980,-83.7220,3.0,8.13,52.81,9.93,'11111222,11111222,11111222' 
COMPS,ioos:station:USF.COMPS:C12:1,2019-09-02T04:35:00,27.4980,-83.7220,3.0,8.3,58.97,10.11,'11111222,11111222,11111222' 
COMPS,ioos:station:USF.COMPS:C12:1,2019-09-02T05:35:00,27.4980,-83.7220,3.0,8.51,62.56,9.99,'11111222,11111222,11111222' 
COMPS,ioos:station:USF.COMPS:C12:1,2019-09-02T06:35:00,27.4980,-83.7220,3.0,7.98,56.68,9.47,'11111222,11111222,11111222' 
COMPS,ioos:station:USF.COMPS:C12:1,2019-09-02T07:35:00,27.4980,-83.7220,3.0,8.25,59.31,10.05,'11111222,11111222,11111222' 
COMPS,ioos:station:USF.COMPS:C12:1,2019-09-02T08:35:00,27.4980,-83.7220,3.0,7.65,63.7,9.48,'11111222,11111222,11111222' 
COMPS,ioos:station:USF.COMPS:C12:1,2019-09-02T09:35:00,27.4980,-83.7220,3.0,6.89,56.52,8.32,'11111222,11111222,11111222' 
COMPS,ioos:station:USF.COMPS:C12:1,2019-09-02T10:35:00,27.4980,-83.7220,3.0,6.77,54.46,8.1,'11111222,11111222,11111222' 
COMPS,ioos:station:USF.COMPS:C12:1,2019-09-02T11:35:00,27.4980,-83.7220,3.0,6.23,46.31,8.02,'11111222,11111222,11111222' 
COMPS,ioos:station:USF.COMPS:C12:1,2019-09-02T12:35:00,27.4980,-83.7220,3.0,5.76,38.77,7.56,'11111222,11111222,11111222' 
COMPS,ioos:station:USF.COMPS:C12:1,2019-09-02T15:35:00,27.4980,-83.7220,3.0,6.9,1.22,9.05,'11111222,11111222,11111222' 
COMPS,ioos:station:USF.COMPS:C12:1,2019-09-02T16:35:00,27.4980,-83.7220,3.0,7.43,19.94,9.48,'11111222,11111222,11111222' 
COMPS,ioos:station:USF.COMPS:C12:1,2019-09-02T17:35:00,27.4980,-83.7220,3.0,6.62,8.05,8.79,'11111222,11111222,11111222' 
COMPS,ioos:station:USF.COMPS:C12:1,2019-09-02T18:35:00,27.4980,-83.7220,3.0,7.93,19.14,9.28,'11111222,11111222,11111222' 
COMPS,ioos:station:USF.COMPS:C12:1,2019-09-02T19:35:00,27.4980,-83.7220,3.0,7.96,7.47,9.7,'11111222,11111222,11111222' 
COMPS,ioos:station:USF.COMPS:C12:1,2019-09-02T20:35:00,27.4980,-83.7220,3.0,8.58,2.94,10.69,'11111222,11111222,11111222' 
COMPS,ioos:station:USF.COMPS:C12:1,2019-09-02T21:35:00,27.4980,-83.7220,3.0,9.29,2.62,11.07,'11111222,11111222,11111222' 
COMPS,ioos:station:USF.COMPS:C12:1,2019-09-02T22:35:00,27.4980,-83.7220,3.0,9.02,5.96,11.47,'11111222,11111222,11111222' 
COMPS,ioos:station:USF.COMPS:C12:1,2019-09-02T23:35:00,27.4980,-83.7220,3.0,8.02,3.09,9.69,'11111222,11111222,11111222' 
COMPS,ioos:station:USF.COMPS:C12:1,2019-09-03T00:35:00,27.4980,-83.7220,3.0,8.39,17.57,10.21,'11111222,11111222,11111222' 
COMPS,ioos:station:USF.COMPS:C12:1,2019-09-03T01:35:00,27.4980,-83.7220,3.0,9.34,22.2,11.15,'11111222,11111222,11111222' 
COMPS,ioos:station:USF.COMPS:C12:1,2019-09-03T02:35:00,27.4980,-83.7220,3.0,9.1,26.65,11.71,'11111222,11111222,11111222' 
COMPS,ioos:station:USF.COMPS:C12:1,2019-09-03T03:35:00,27.4980,-83.7220,3.0,9.33,34.58,11.6,'11111222,11111222,11111222' 
COMPS,ioos:station:USF.COMPS:C12:1,2019-09-03T04:35:00,27.4980,-83.7220,3.0,9.29,41.04,11.83,'11111222,11111222,11111222' 
COMPS,ioos:station:USF.COMPS:C12:1,2019-09-03T05:35:00,27.4980,-83.7220,3.0,9.06,40.82,11.07,'11111222,11111222,11111222' 
COMPS,ioos:station:USF.COMPS:C12:1,2019-09-03T06:35:00,27.4980,-83.7220,3.0,8.92,34.38,10.71,'11111222,11111222,11111222' 
COMPS,ioos:station:USF.COMPS:C12:1,2019-09-03T07:35:00,27.4980,-83.7220,3.0,8.87,40.04,11.88,'11111222,11111222,11111222' 
COMPS,ioos:station:USF.COMPS:C12:1,2019-09-03T08:35:00,27.4980,-83.7220,3.0,8.42,40.56,11.12,'11111222,11111222,11111222' 
COMPS,ioos:station:USF.COMPS:C12:1,2019-09-03T09:35:00,27.4980,-83.7220,3.0,8.73,38.88,10.93,'11111222,11111222,11111222' 
COMPS,ioos:station:USF.COMPS:C12:1,2019-09-03T10:35:00,27.4980,-83.7220,3.0,6.96,35.01,8.8,'11111222,11111222,11111222' 
COMPS,ioos:station:USF.COMPS:C12:1,2019-09-03T11:35:00,27.4980,-83.7220,3.0,7.71,34.12,9.65,'11111222,11111222,11111222' 
COMPS,ioos:station:USF.COMPS:C12:1,2019-09-03T12:35:00,27.4980,-83.7220,3.0,6.79,26.26,8.17,'11111222,11111222,11111222' 
COMPS,ioos:station:USF.COMPS:C12:1,2019-09-03T13:35:00,27.4980,-83.7220,3.0,6.5,32.24,8.28,'11111222,11111222,11111222' 
COMPS,ioos:station:USF.COMPS:C12:1,2019-09-03T14:35:00,27.4980,-83.7220,3.0,7.21,26.3,9.12,'11111222,11111222,11111222' 
COMPS,ioos:station:USF.COMPS:C12:1,2019-09-03T15:35:00,27.4980,-83.7220,3.0,7.34,20.62,9.13,'11111222,11111222,11111222' 
COMPS,ioos:station:USF.COMPS:C12:1,2019-09-03T16:35:00,27.4980,-83.7220,3.0,6.04,19.0,7.3,'11111222,11111222,11111222' 
COMPS,ioos:station:USF.COMPS:C12:1,2019-09-03T17:35:00,27.4980,-83.7220,3.0,7.15,16.71,8.49,'11111222,11111222,11111222' 
COMPS,ioos:station:USF.COMPS:C12:1,2019-09-03T18:35:00,27.4980,-83.7220,3.0,7.55,18.83,9.37,'11111222,11111222,11111222' 
COMPS,ioos:station:USF.COMPS:C12:1,2019-09-03T19:35:00,27.4980,-83.7220,3.0,6.8,24.02,8.21,'11111222,11111222,11111222' 
COMPS,ioos:station:USF.COMPS:C12:1,2019-09-03T20:35:00,27.4980,-83.7220,3.0,6.82,4.98,8.22,'11111222,11111222,11111222' 
COMPS,ioos:station:USF.COMPS:C12:1,2019-09-03T21:35:00,27.4980,-83.7220,3.0,6.85,359.2,8.14,'11111222,11144222,11111222' 
COMPS,ioos:station:USF.COMPS:C12:1,2019-09-03T22:35:00,27.4980,-83.7220,3.0,8.02,2.51,10.32,'11111222,11111222,11111222' 
COMPS,ioos:station:USF.COMPS:C12:1,2019-09-03T23:35:00,27.4980,-83.7220,3.0,8.67,2.42,11.0,'11111222,11111222,11111222' 
COMPS,ioos:station:USF.COMPS:C12:1,2019-09-04T00:35:00,27.4980,-83.7220,3.0,8.66,27.99,10.86,'11111222,11111222,11111222' 
COMPS,ioos:station:USF.COMPS:C12:1,2019-09-04T01:35:00,27.4980,-83.7220,3.0,7.67,15.75,9.49,'11111222,11111222,11111222' 
COMPS,ioos:station:USF.COMPS:C12:1,2019-09-04T02:35:00,27.4980,-83.7220,3.0,6.97,7.25,9.9,'11111222,11111222,11111222' 
COMPS,ioos:station:USF.COMPS:C12:1,2019-09-04T03:35:00,27.4980,-83.7220,3.0,7.55,4.9,9.44,'11111222,11111222,11111222' 
COMPS,ioos:station:USF.COMPS:C12:1,2019-09-04T04:35:00,27.4980,-83.7220,3.0,7.06,5.36,8.63,'11111222,11111222,11111222' 
COMPS,ioos:station:USF.COMPS:C12:1,2019-09-04T05:35:00,27.4980,-83.7220,3.0,7.08,2.64,8.77,'11111222,11111222,11111222' 
COMPS,ioos:station:USF.COMPS:C12:1,2019-09-04T06:35:00,27.4980,-83.7220,3.0,6.96,357.23,8.48,'11111222,11111222,11111222' 
COMPS,ioos:station:USF.COMPS:C12:1,2019-09-04T07:35:00,27.4980,-83.7220,3.0,6.76,343.12,8.8,'11111222,11111222,11111222' 
COMPS,ioos:station:USF.COMPS:C12:1,2019-09-04T08:35:00,27.4980,-83.7220,3.0,7.15,344.91,8.87,'11111222,11111222,11111222' 
COMPS,ioos:station:USF.COMPS:C12:1,2019-09-04T09:35:00,27.4980,-83.7220,3.0,7.13,338.52,8.66,'11111222,11111222,11111222' 
COMPS,ioos:station:USF.COMPS:C12:1,2019-09-04T10:35:00,27.4980,-83.7220,3.0,7.61,336.68,9.06,'11111222,11111222,11111222' 
COMPS,ioos:station:USF.COMPS:C12:1,2019-09-04T11:35:00,27.4980,-83.7220,3.0,8.64,344.39,10.96,'11111222,11111222,11111222' 
COMPS,ioos:station:USF.COMPS:C12:1,2019-09-04T12:35:00,27.4980,-83.7220,3.0,8.64,340.05,10.15,'11111222,11111222,11111222' 
COMPS,ioos:station:USF.COMPS:C12:1,2019-09-04T13:35:00,27.4980,-83.7220,3.0,8.38,338.7,10.63,'11111222,11111222,11111222' 
COMPS,ioos:station:USF.COMPS:C12:1,2019-09-04T14:35:00,27.4980,-83.7220,3.0,8.66,328.86,10.13,'11111222,11111222,11111222' 
COMPS,ioos:station:USF.COMPS:C12:1,2019-09-04T15:35:00,27.4980,-83.7220,3.0,8.93,330.77,10.85,'11111222,11111222,11111222' 
COMPS,ioos:station:USF.COMPS:C12:1,2019-09-04T16:35:00,27.4980,-83.7220,3.0,8.08,325.92,10.33,'11111222,11111222,11111222' 
COMPS,ioos:station:USF.COMPS:C12:1,2019-09-04T17:35:00,27.4980,-83.7220,3.0,7.93,309.5,10.1,'11111222,11111222,11111222' 
COMPS,ioos:station:USF.COMPS:C12:1,2019-09-04T18:35:00,27.4980,-83.7220,3.0,8.69,306.6,10.71,'11111222,11111222,11111222' 
COMPS,ioos:station:USF.COMPS:C12:1,2019-09-04T19:35:00,27.4980,-83.7220,3.0,8.36,303.47,10.11,'11111222,11111222,11111222' 
COMPS,ioos:station:USF.COMPS:C12:1,2019-09-04T20:35:00,27.4980,-83.7220,3.0,8.21,309.24,10.24,'11111222,11111222,11111222' 
COMPS,ioos:station:USF.COMPS:C12:1,2019-09-04T21:35:00,27.4980,-83.7220,3.0,8.45,317.82,10.2,'11111222,11111222,11111222' 
COMPS,ioos:station:USF.COMPS:C12:1,2019-09-04T22:35:00,27.4980,-83.7220,3.0,7.54,314.0,9.89,'11111222,11111222,11111222' 
COMPS,ioos:station:USF.COMPS:C12:1,2019-09-04T23:35:00,27.4980,-83.7220,3.0,7.4,300.02,9.29,'11111222,11111222,11111222' 
COMPS,ioos:station:USF.COMPS:C12:1,2019-09-05T00:35:00,27.4980,-83.7220,3.0,7.26,302.1,8.96,'11111222,11111222,11111222' 
COMPS,ioos:station:USF.COMPS:C12:1,2019-09-05T01:35:00,27.4980,-83.7220,3.0,7.2,300.07,8.87,'11111222,11111222,11111222' 
COMPS,ioos:station:USF.COMPS:C12:1,2019-09-05T02:35:00,27.4980,-83.7220,3.0,7.36,290.91,8.88,'11111222,11111222,11111222' 
COMPS,ioos:station:USF.COMPS:C12:1,2019-09-05T03:35:00,27.4980,-83.7220,3.0,7.02,288.43,8.69,'11111222,11111222,11111222' 
COMPS,ioos:station:USF.COMPS:C12:1,2019-09-05T04:35:00,27.4980,-83.7220,3.0,6.86,282.57,8.17,'11111222,11111222,11111222' 
COMPS,ioos:station:USF.COMPS:C12:1,2019-09-05T05:35:00,27.4980,-83.7220,3.0,6.78,280.19,8.38,'11111222,11111222,11111222' 
COMPS,ioos:station:USF.COMPS:C12:1,2019-09-05T06:35:00,27.4980,-83.7220,3.0,7.15,273.83,8.69,'11111222,11111222,11111222' 
COMPS,ioos:station:USF.COMPS:C12:1,2019-09-05T07:35:00,27.4980,-83.7220,3.0,7.01,273.86,8.48,'11111222,11111222,11111222' 
COMPS,ioos:station:USF.COMPS:C12:1,2019-09-05T08:35:00,27.4980,-83.7220,3.0,7.5,278.28,9.13,'11111222,11111222,11111222' 
COMPS,ioos:station:USF.COMPS:C12:1,2019-09-05T09:35:00,27.4980,-83.7220,3.0,7.8,275.72,9.24,'11111222,11111222,11111222' 
COMPS,ioos:station:USF.COMPS:C12:1,2019-09-05T10:35:00,27.4980,-83.7220,3.0,7.71,281.65,9.49,'11111222,11111222,11111222' 
COMPS,ioos:station:USF.COMPS:C12:1,2019-09-05T11:35:00,27.4980,-83.7220,3.0,8.12,284.7,10.19,'11111222,11111222,11111222' 
COMPS,ioos:station:USF.COMPS:C12:1,2019-09-05T12:35:00,27.4980,-83.7220,3.0,7.83,285.63,9.35,'11111222,11111222,11111222' 
COMPS,ioos:station:USF.COMPS:C12:1,2019-09-05T13:35:00,27.4980,-83.7220,3.0,7.0,280.39,8.46,'11111222,11111222,11111222' 
COMPS,ioos:station:USF.COMPS:C12:1,2019-09-05T14:35:00,27.4980,-83.7220,3.0,7.38,277.85,9.12,'11111222,11111222,11111222' 
COMPS,ioos:station:USF.COMPS:C12:1,2019-09-05T15:35:00,27.4980,-83.7220,3.0,7.6,282.26,9.25,'11111222,11111222,11111222' 
COMPS,ioos:station:USF.COMPS:C12:1,2019-09-05T16:35:00,27.4980,-83.7220,3.0,7.09,275.81,8.49,'11111222,11111222,11111222' 
COMPS,ioos:station:USF.COMPS:C12:1,2019-09-05T17:35:00,27.4980,-83.7220,3.0,7.01,275.15,8.54,'11111222,11111222,11111222' 
COMPS,ioos:station:USF.COMPS:C12:1,2019-09-05T18:35:00,27.4980,-83.7220,3.0,7.34,266.72,8.99,'11111222,11111222,11111222' 
COMPS,ioos:station:USF.COMPS:C12:1,2019-09-05T19:35:00,27.4980,-83.7220,3.0,7.32,264.97,9.27,'11111222,11111222,11111222' 
COMPS,ioos:station:USF.COMPS:C12:1,2019-09-05T20:35:00,27.4980,-83.7220,3.0,7.52,269.22,9.15,'11111222,11111222,11111222' 
COMPS,ioos:station:USF.COMPS:C12:1,2019-09-05T21:35:00,27.4980,-83.7220,3.0,7.52,263.14,9.29,'11111222,11111222,11111222' 
COMPS,ioos:station:USF.COMPS:C12:1,2019-09-05T22:35:00,27.4980,-83.7220,3.0,6.95,267.6,8.17,'11111222,11111222,11111222' 
COMPS,ioos:station:USF.COMPS:C12:1,2019-09-05T23:35:00,27.4980,-83.7220,3.0,6.86,267.81,8.06,'11111222,11111222,11111222' 
COMPS,ioos:station:USF.COMPS:C12:1,2019-09-06T00:35:00,27.4980,-83.7220,3.0,7.23,268.06,8.88,'11111222,11111222,11111222' 
COMPS,ioos:station:USF.COMPS:C12:1,2019-09-06T01:35:00,27.4980,-83.7220,3.0,7.09,261.64,8.39,'11111222,11111222,11111222' 
COMPS,ioos:station:USF.COMPS:C12:1,2019-09-06T02:35:00,27.4980,-83.7220,3.0,7.22,264.5,9.03,'11111222,11111222,11111222' 
COMPS,ioos:station:USF.COMPS:C12:1,2019-09-06T03:35:00,27.4980,-83.7220,3.0,7.42,268.51,9.42,'11111222,11111222,11111222' 
COMPS,ioos:station:USF.COMPS:C12:1,2019-09-06T04:35:00,27.4980,-83.7220,3.0,7.86,276.06,9.73,'11111222,11111222,11111222' 
COMPS,ioos:station:USF.COMPS:C12:1,2019-09-06T06:35:00,27.4980,-83.7220,3.0,7.69,278.95,9.24,'11111222,11111222,11111222' 
COMPS,ioos:station:USF.COMPS:C12:1,2019-09-06T07:35:00,27.4980,-83.7220,3.0,7.66,267.3,9.64,'11111222,11111222,11111222' 
COMPS,ioos:station:USF.COMPS:C12:1,2019-09-06T08:35:00,27.4980,-83.7220,3.0,8.3,266.95,10.25,'11111222,11111222,11111222' 
COMPS,ioos:station:USF.COMPS:C12:1,2019-09-06T09:35:00,27.4980,-83.7220,3.0,8.86,275.94,11.18,'11111222,11111222,11111222' 
COMPS,ioos:station:USF.COMPS:C12:1,2019-09-06T10:35:00,27.4980,-83.7220,3.0,8.34,280.93,9.84,'11111222,11111222,11111222' 
COMPS,ioos:station:USF.COMPS:C12:1,2019-09-06T11:35:00,27.4980,-83.7220,3.0,8.75,287.82,10.44,'11111222,11111222,11111222' 
COMPS,ioos:station:USF.COMPS:C12:1,2019-09-06T12:35:00,27.4980,-83.7220,3.0,7.44,288.69,8.94,'11111222,11111222,11111222' 
COMPS,ioos:station:USF.COMPS:C12:1,2019-09-06T13:35:00,27.4980,-83.7220,3.0,7.19,279.14,8.61,'11111222,11111222,11111222' 
COMPS,ioos:station:USF.COMPS:C12:1,2019-09-06T14:35:00,27.4980,-83.7220,3.0,6.94,282.11,8.84,'11111222,11111222,11111222' 
COMPS,ioos:station:USF.COMPS:C12:1,2019-09-06T15:35:00,27.4980,-83.7220,3.0,6.62,274.05,7.73,'11111222,11111222,11111222' 
COMPS,ioos:station:USF.COMPS:C12:1,2019-09-06T16:35:00,27.4980,-83.7220,3.0,5.98,271.52,7.17,'11111222,11111222,11111222' 
COMPS,ioos:station:USF.COMPS:C12:1,2019-09-06T17:35:00,27.4980,-83.7220,3.0,6.14,268.04,7.63,'11111222,11111222,11111222' 
COMPS,ioos:station:USF.COMPS:C12:1,2019-09-06T18:35:00,27.4980,-83.7220,3.0,6.48,263.36,8.21,'11111222,11111222,11111222' 
COMPS,ioos:station:USF.COMPS:C12:1,2019-09-06T19:35:00,27.4980,-83.7220,3.0,7.02,260.27,9.12,'11111222,11111222,11111222' 
COMPS,ioos:station:USF.COMPS:C12:1,2019-09-06T20:35:00,27.4980,-83.7220,3.0,7.2,271.59,8.74,'11111222,11111222,11111222' 
COMPS,ioos:station:USF.COMPS:C12:1,2019-09-06T21:35:00,27.4980,-83.7220,3.0,4.96,298.51,6.02,'11111222,11111222,11111222' 
COMPS,ioos:station:USF.COMPS:C12:1,2019-09-06T22:35:00,27.4980,-83.7220,3.0,5.22,297.74,6.45,'11111222,11111222,11111222' 
COMPS,ioos:station:USF.COMPS:C12:1,2019-09-06T23:35:00,27.4980,-83.7220,3.0,5.28,300.07,6.27,'11111222,11111222,11111222' 
COMPS,ioos:station:USF.COMPS:C12:1,2019-09-07T00:35:00,27.4980,-83.7220,3.0,6.19,293.28,8.03,'11111222,11111222,11111222' 
COMPS,ioos:station:USF.COMPS:C12:1,2019-09-07T01:35:00,27.4980,-83.7220,3.0,5.95,303.66,7.21,'11111222,11111222,11111222' 
COMPS,ioos:station:USF.COMPS:C12:1,2019-09-07T02:35:00,27.4980,-83.7220,3.0,5.82,321.64,7.39,'11111222,11111222,11111222' 
COMPS,ioos:station:USF.COMPS:C12:1,2019-09-07T03:35:00,27.4980,-83.7220,3.0,6.81,308.43,8.21,'11111222,11111222,11111222' 
COMPS,ioos:station:USF.COMPS:C12:1,2019-09-07T04:35:00,27.4980,-83.7220,3.0,5.9,296.72,7.81,'11111222,11111222,11111222' 
COMPS,ioos:station:USF.COMPS:C12:1,2019-09-07T05:35:00,27.4980,-83.7220,3.0,4.59,316.78,6.86,'11111222,11111222,11111222' 
COMPS,ioos:station:USF.COMPS:C12:1,2019-09-07T06:35:00,27.4980,-83.7220,3.0,4.57,330.9,6.12,'11111222,11111222,11111222' 
COMPS,ioos:station:USF.COMPS:C12:1,2019-09-07T07:35:00,27.4980,-83.7220,3.0,3.69,327.4,5.18,'11111222,11111222,11111222' 
COMPS,ioos:station:USF.COMPS:C12:1,2019-09-07T08:35:00,27.4980,-83.7220,3.0,3.91,322.67,5.58,'11111222,11111222,11111222' 
COMPS,ioos:station:USF.COMPS:C12:1,2019-09-07T09:35:00,27.4980,-83.7220,3.0,3.68,305.97,4.99,'11111222,11111222,11111222' 
COMPS,ioos:station:USF.COMPS:C12:1,2019-09-07T10:35:00,27.4980,-83.7220,3.0,1.85,338.23,3.22,'11111222,11111222,11111222' 
COMPS,ioos:station:USF.COMPS:C12:1,2019-09-07T11:35:00,27.4980,-83.7220,3.0,0.94,35.33,1.83,'11111222,11111222,11111222' 
COMPS,ioos:station:USF.COMPS:C12:1,2019-09-07T12:35:00,27.4980,-83.7220,3.0,1.08,306.08,1.92,'11111222,11111222,11111222' 
COMPS,ioos:station:USF.COMPS:C12:1,2019-09-07T13:35:00,27.4980,-83.7220,3.0,2.16,99.16,3.29,'11111222,11111222,11111222' 
COMPS,ioos:station:USF.COMPS:C12:1,2019-09-07T14:35:00,27.4980,-83.7220,3.0,2.02,179.23,2.78,'11111222,11111222,11111222' 
COMPS,ioos:station:USF.COMPS:C12:1,2019-09-07T15:35:00,27.4980,-83.7220,3.0,2.38,169.24,3.41,'11111222,11111222,11111222' 
COMPS,ioos:station:USF.COMPS:C12:1,2019-09-07T16:35:00,27.4980,-83.7220,3.0,2.45,180.85,3.38,'11111222,11111222,11111222' 
COMPS,ioos:station:USF.COMPS:C12:1,2019-09-07T17:35:00,27.4980,-83.7220,3.0,3.03,205.15,4.09,'11111222,11111222,11111222' 
COMPS,ioos:station:USF.COMPS:C12:1,2019-09-07T18:35:00,27.4980,-83.7220,3.0,2.64,220.25,3.67,'11111222,11111222,11111222' 
COMPS,ioos:station:USF.COMPS:C12:1,2019-09-07T19:35:00,27.4980,-83.7220,3.0,1.51,261.68,2.46,'11111222,11111222,11111222' 
COMPS,ioos:station:USF.COMPS:C12:1,2019-09-07T20:35:00,27.4980,-83.7220,3.0,1.55,269.15,2.41,'11111222,11111222,11111222' 
COMPS,ioos:station:USF.COMPS:C12:1,2019-09-07T21:35:00,27.4980,-83.7220,3.0,1.61,301.31,2.56,'11111222,11111222,11111222' 
COMPS,ioos:station:USF.COMPS:C12:1,2019-09-07T22:35:00,27.4980,-83.7220,3.0,1.8,288.61,2.83,'11111222,11111222,11111222' 
COMPS,ioos:station:USF.COMPS:C12:1,2019-09-07T23:35:00,27.4980,-83.7220,3.0,2.53,327.39,3.39,'11111222,11111222,11111222' 
COMPS,ioos:station:USF.COMPS:C12:1,2019-09-08T00:35:00,27.4980,-83.7220,3.0,2.99,329.28,3.71,'11111222,11111222,11111222' 
COMPS,ioos:station:USF.COMPS:C12:1,2019-09-08T01:35:00,27.4980,-83.7220,3.0,2.01,341.63,2.83,'11111222,11111222,11111222' 
COMPS,ioos:station:USF.COMPS:C12:1,2019-09-08T02:35:00,27.4980,-83.7220,3.0,3.21,317.43,4.1,'11111222,11111222,11111222' 
COMPS,ioos:station:USF.COMPS:C12:1,2019-09-08T03:35:00,27.4980,-83.7220,3.0,3.23,320.67,4.21,'11111222,11111222,11111222' 
COMPS,ioos:station:USF.COMPS:C12:1,2019-09-08T04:35:00,27.4980,-83.7220,3.0,3.36,317.79,4.24,'11111222,11111222,11111222' 
COMPS,ioos:station:USF.COMPS:C12:1,2019-09-08T05:35:00,27.4980,-83.7220,3.0,2.6,309.69,3.4,'11111222,11111222,11111222' 
COMPS,ioos:station:USF.COMPS:C12:1,2019-09-08T06:35:00,27.4980,-83.7220,3.0,2.35,297.77,3.26,'11111222,11111222,11111222' 
COMPS,ioos:station:USF.COMPS:C12:1,2019-09-08T07:35:00,27.4980,-83.7220,3.0,1.77,295.37,2.52,'11111222,11111222,11111222' 
COMPS,ioos:station:USF.COMPS:C12:1,2019-09-08T08:35:00,27.4980,-83.7220,3.0,1.73,293.5,2.57,'11111222,11111222,11111222' 
COMPS,ioos:station:USF.COMPS:C12:1,2019-09-08T09:35:00,27.4980,-83.7220,3.0,0.92,257.79,1.33,'11111222,11111222,11111222' 
COMPS,ioos:station:USF.COMPS:C12:1,2019-09-08T10:35:00,27.4980,-83.7220,3.0,0.55,3.39,1.08,'11111222,11111222,11111222' 
COMPS,ioos:station:USF.COMPS:C12:1,2019-09-08T11:35:00,27.4980,-83.7220,3.0,0.37,146.75,0.85,'11111222,11111222,11111222' 
COMPS,ioos:station:USF.COMPS:C12:1,2019-09-08T12:35:00,27.4980,-83.7220,3.0,0.72,264.66,1.32,'11111222,11111222,11111222' 
COMPS,ioos:station:USF.COMPS:C12:1,2019-09-08T13:35:00,27.4980,-83.7220,3.0,1.08,274.92,1.68,'11111222,11111222,11111222' 
COMPS,ioos:station:USF.COMPS:C12:1,2019-09-08T14:35:00,27.4980,-83.7220,3.0,0.79,299.63,1.84,'11111222,11111222,11111222' 
COMPS,ioos:station:USF.COMPS:C12:1,2019-09-08T15:35:00,27.4980,-83.7220,3.0,0.86,322.17,1.4,'11111222,11111222,11111222' 
COMPS,ioos:station:USF.COMPS:C12:1,2019-09-08T16:35:00,27.4980,-83.7220,3.0,0.37,42.91,1.3,'11111222,11111222,11111222' 
COMPS,ioos:station:USF.COMPS:C12:1,2019-09-08T17:35:00,27.4980,-83.7220,3.0,0.72,327.98,1.38,'11111222,11111222,11111222' 
COMPS,ioos:station:USF.COMPS:C12:1,2019-09-08T18:35:00,27.4980,-83.7220,3.0,1.68,107.81,2.59,'11111222,11111222,11111222' 
COMPS,ioos:station:USF.COMPS:C12:1,2019-09-08T19:35:00,27.4980,-83.7220,3.0,1.02,107.93,2.49,'11111222,11111222,11111222' 
COMPS,ioos:station:USF.COMPS:C12:1,2019-09-08T20:35:00,27.4980,-83.7220,3.0,1.94,118.62,3.02,'11111222,11111222,11111222' 
COMPS,ioos:station:USF.COMPS:C12:1,2019-09-08T21:35:00,27.4980,-83.7220,3.0,2.37,140.63,3.26,'11111222,11111222,11111222' 
COMPS,ioos:station:USF.COMPS:C12:1,2019-09-08T22:35:00,27.4980,-83.7220,3.0,1.74,124.37,2.98,'11111222,11111222,11111222' 
COMPS,ioos:station:USF.COMPS:C12:1,2019-09-08T23:35:00,27.4980,-83.7220,3.0,1.25,163.5,2.34,'11111222,11111222,11111222' 
COMPS,ioos:station:USF.COMPS:C12:1,2019-09-09T00:35:00,27.4980,-83.7220,3.0,0.73,155.07,1.79,'11111222,11111222,11111222' 
COMPS,ioos:station:USF.COMPS:C12:1,2019-09-09T01:35:00,27.4980,-83.7220,3.0,1.2,118.02,2.0,'11111222,11111222,11111222' 
COMPS,ioos:station:USF.COMPS:C12:1,2019-09-09T02:35:00,27.4980,-83.7220,3.0,2.04,117.01,2.72,'11111222,11111222,11111222' 
COMPS,ioos:station:USF.COMPS:C12:1,2019-09-09T03:35:00,27.4980,-83.7220,3.0,2.26,120.74,3.48,'11111222,11111222,11111222' 
COMPS,ioos:station:USF.COMPS:C12:1,2019-09-09T04:35:00,27.4980,-83.7220,3.0,2.74,114.74,3.65,'11111222,11111222,11111222' 
COMPS,ioos:station:USF.COMPS:C12:1,2019-09-09T05:35:00,27.4980,-83.7220,3.0,2.77,138.36,4.49,'11111222,11111222,11111222' 
COMPS,ioos:station:USF.COMPS:C12:1,2019-09-09T06:35:00,27.4980,-83.7220,3.0,2.77,128.01,3.56,'11111222,11111222,11111222' 